Weather History for Gulkana, AK

Change the Weather History Date:

Monday, January 28, 2013

  Actual Average Record
Temperature  
Mean Temperature -24 °F -  
Max Temperature -15 °F 8 °F 37 °F (1971)
Min Temperature -33 °F -8 °F -50 °F (1954)
Degree Days  
Heating Degree Days 89    
Moisture  
Dew Point -26 °F    
Average Humidity 66    
Maximum Humidity 79    
Minimum Humidity 43    
Precipitation  
Precipitation 0.08 in - - ()
Snow  
Snow 0.00 in - - ()
Snow Depth 8.00 in    
Sea Level Pressure  
Sea Level Pressure 30.40 in    
Wind  
Wind Speed 7 mph (North)    
Max Wind Speed 16 mph    
Max Gust Speed -    
Visibility 8 miles    
Events Snow    
Averages and records for this station are not official NWS values.
T = Trace of Precipitation, MM = Missing Value Source: NWS Daily Summary

Daily Weather History Graph

Daily Weather History Graph

Search for Another Location

Airport:

Trip Planner

Search our weather history database for the weather conditions in past years. The results will help you decide how hot, cold, wet, or windy it might be!

Date:

Astronomy

Jan. 28, 2013 Rise Set
Actual Time 9:17 AM AKST 4:33 PM AKST
Civil Twilight 8:24 AM AKST 5:26 PM AKST
Nautical Twilight 7:28 AM AKST 6:21 PM AKST
Astronomical Twilight 6:36 AM AKST 7:14 PM AKST
Moon 7:35 PM AKST 8:57 AM AKST
Length of Visible Light 9h 02m
Length of Day
7h 15m
Full, 97% of the Moon is Illuminated
Jan 28
Full
Feb 3
Last Quarter
Feb 9
New
Feb 17
First Quarter
Feb 25
Full

Hourly Weather History & Observations

Time (AKST) Temp. Windchill Dew Point Humidity Pressure Visibility Wind Dir Wind Speed Gust Speed Precip Events Conditions
12:53 AM -15.0 °F -38.5 °F -26.0 °F 58% 30.39 in 10.0 mi NNW 15.0 mph - N/A   Clear
1:53 AM -15.0 °F -39.3 °F -26.0 °F 58% 30.41 in 10.0 mi NNW 16.1 mph - N/A   Clear
3:53 AM -17.0 °F -36.1 °F -27.0 °F 60% 30.45 in 10.0 mi NW 9.2 mph - N/A   Clear
4:53 AM -17.0 °F -39.3 °F -27.0 °F 60% 30.46 in 10.0 mi NW 12.7 mph - N/A   Clear
5:53 AM -18.0 °F -36.1 °F -27.9 °F 61% 30.48 in 10.0 mi NNW 8.1 mph - N/A   Partly Cloudy
6:53 AM -23.1 °F -34.2 °F -29.9 °F 70% 30.50 in 10.0 mi NNE 3.5 mph - N/A   Partly Cloudy
7:53 AM -29.9 °F - - N/A% 30.53 in 10.0 mi Calm Calm - N/A   Clear
8:53 AM -31.0 °F - - N/A% 30.54 in 10.0 mi Calm Calm - N/A   Partly Cloudy
9:53 AM -31.0 °F - - N/A% 30.55 in 10.0 mi Calm Calm - N/A   Partly Cloudy
10:53 AM -29.0 °F -41.0 °F -34.1 °F 77% 30.57 in 10.0 mi ESE 3.5 mph - N/A   Partly Cloudy
11:53 AM -24.0 °F -35.2 °F -29.9 °F 74% 30.54 in 10.0 mi SE 3.5 mph - N/A   Partly Cloudy
12:53 PM -23.1 °F -34.2 °F -29.9 °F 70% 30.54 in 10.0 mi SSE 3.5 mph - N/A   Partly Cloudy
1:53 PM -18.9 °F - -29.0 °F 60% 30.52 in 10.0 mi Calm Calm - N/A   Partly Cloudy
2:53 PM -18.9 °F -32.0 °F -27.9 °F 63% 30.49 in 10.0 mi NNW 4.6 mph - N/A   Mostly Cloudy
3:53 PM -20.0 °F - -27.0 °F 70% 30.49 in 10.0 mi Calm Calm - N/A   Scattered Clouds
4:53 PM -24.0 °F -35.2 °F -29.0 °F 77% 30.45 in 10.0 mi North 3.5 mph - N/A   Scattered Clouds
5:53 PM -20.0 °F -30.7 °F -27.0 °F 70% 30.43 in 10.0 mi North 3.5 mph - N/A   Mostly Cloudy
6:53 PM -18.0 °F -30.9 °F -25.1 °F 70% 30.40 in 10.0 mi NNE 4.6 mph - N/A   Mostly Cloudy
7:53 PM -17.0 °F - -25.1 °F 67% 30.40 in 10.0 mi Calm Calm - N/A   Overcast
8:53 PM -16.1 °F - -24.0 °F 67% 30.39 in 10.0 mi Calm Calm - N/A   Overcast
9:27 PM -15.0 °F - -24.0 °F 64% 30.10 in 10.0 mi Calm Calm - N/A   Overcast
9:53 PM -15.0 °F -25.0 °F -24.0 °F 64% 30.37 in 10.0 mi North 3.5 mph - N/A   Overcast
10:30 PM -15.0 °F - -23.1 °F 67% 30.08 in 2.0 mi Calm Calm - 0.00 in Snow Light Snow
10:37 PM -15.0 °F - -22.0 °F 71% 30.08 in 1.0 mi Calm Calm - 0.00 in Snow Light Snow
10:53 PM -15.0 °F - -20.9 °F 75% 30.35 in 1.2 mi Calm Calm - 0.02 in Snow Light Snow
11:38 PM -16.1 °F -26.2 °F -20.9 °F 79% 30.05 in 2.0 mi NNW 3.5 mph - 0.02 in Snow Light Snow
11:46 PM -15.0 °F -25.0 °F -20.9 °F 75% 30.05 in 1.5 mi NNW 3.5 mph - 0.02 in Snow Light Snow
11:53 PM -15.0 °F -25.0 °F -20.9 °F 75% 30.31 in 1.5 mi North 3.5 mph - 0.02 in Snow Light Snow